Regional Weather Roundup
Issued by NWS Glasgow, MT

Home | Current Version | Previous Version | Text Only | Print | Product List | Glossary On
Versions: 1 2 3 4 5 6 7 8 9 10 11 12 13 14 15 16 17 18 19 20 21 22 23 24 25 26 27 28 29 30 31 32 33 34 35 36 37 38 39 40 41 42 43 44 45 46 47 48 49 50
000
ASUS45 KGGW 282215
RWRGGW
HOURLY WEATHER ROUNDUP FOR NORTHEAST MONTANA
NATIONAL WEATHER SERVICE GLASGOW MONTANA
300 PM MST FRI NOV 28 2014

NOTE: "FAIR" INDICATES FEW OR NO CLOUDS BELOW 12,000 FEET WITH NO
SIGNIFICANT WEATHER AND/OR OBSTRUCTIONS TO VISISBILITY.

NORTHEAST MONTANA


CITY           SKY/WX    TMP DP  RH WIND       PRES   REMARKS
GLASGOW        PTCLDY    29  24  82 NW6       29.41R
PLENTYWOOD       N/A     22  19  89 SE9         N/A
WOLF POINT     PTCLDY    30  25  81 E6        29.42F
JORDAN           N/A     53  37  54 SW13      29.39F
WINNETT          N/A     56  33  42 S15G24      N/A
SIDNEY         PTCLDY    28  27  93 CALM      29.46F
GLENDIVE       MOCLDY    41  34  75 S8        29.45F
MALTA            N/A     34  32  92 W7G17       N/A

FORT PECK REPORTS


CITY           SKY/WX    TMP DP  RH WIND       PRES   REMARKS
FORT PECK        N/A     37  32  82 NW3         N/A
THE PINES        N/A     43  35  73 NE3         N/A

SOUTHEAST MONTANA


CITY           SKY/WX    TMP DP  RH WIND       PRES   REMARKS
BILLINGS       PTSUNNY   57  28  33 W18G30    29.52S
MILES CITY     CLOUDY    47  36  65 S8        29.45F
BAKER          CLOUDY    50  31  48 SW12      29.49F
LIVINGSTON     CLOUDY    54  24  31 SW30G40   29.54F

CENTRAL MONTANA


CITY           SKY/WX    TMP DP  RH WIND       PRES   REMARKS
HAVRE          FLURRIES  11   6  81 NW14      29.59R WCI  -5
LEWISTOWN      PTSUNNY   55  30  38 W21G29    29.45S
GREAT FALLS    PTSUNNY   54  33  45 SW24G32   29.40R
CUT BANK       CLOUDY     3  -2  79 N29G36    29.51R HAZE    WCI -21
HELENA         CLOUDY    55  30  38 SW12G21   29.48F
BUTTE          CLOUDY    45  27  49 E8        29.58F
BOZEMAN        CLOUDY    51  28  41 SW8       29.56F

WESTERN MONTANA


CITY           SKY/WX    TMP DP  RH WIND       PRES   REMARKS
MISSOULA       CLOUDY    50  36  58 VRB6      29.50F
KALISPELL      NOT AVBL

NORTH DAKOTA


CITY           SKY/WX    TMP DP  RH WIND       PRES   REMARKS
WILLISTON      CLEAR     25  19  78 SE3       29.47F
DICKINSON      MOCLDY    40  32  73 S9        29.45F
MINOT          MOCLDY    13   8  81 SE15      29.57F WCI  -3
BISMARCK       MOCLDY    22  16  78 E9        29.61F

SOUTHERN SASKATCHEWAN


CITY           SKY/WX    TMP DP  RH WIND       PRES   REMARKS
REGINA         LGT SNOW  10   7  85 SE10      29.52R DRFTSNOWWCI  -3
MOOSE JAW      CLOUDY    14  10  85 E8        29.50S
ESTEVAN        FLURRIES  12   7  79 SE16G24   29.50F WCI  -4
SWIFT CURRENT  LGT SNOW  14  12  92 W17G23    29.48R WCI  -3




USA.gov is the U.S. government's official web portal to all federal, state and local government web resources and services.